Home   Weather   Las Palmas   Past weeks
Flag for Spain

Past Weather in Las Palmas, Canary Islands, Spain — Yesterday and Last 2 Weeks

Now
77 °F

Scattered clouds.


Feels Like: 79 °F
Forecast: 75 / 71 °F
Wind: 28 mph from North

Location: Las Palmas De Gran Canaria / Gando

Current Time: Jul 19, 2019 at 8:15:53 pm

Latest Report: Jul 19, 2019 at 7:30 pm


Visibility: N/A

Pressure: 29.98 "Hg

Humidity: 61%

Dew Point: 63 °F

Location of Las PalmasLocation

Past Weather in Las Palmas — Graph

°F

Las Palmas Temperature Yesterday

Maximum temperature yesterday: 79 °F (at 2:00 pm)
Minimum temperature yesterday: 70 °F (at 4:00 am)
Average temperature yesterday: 73 °F

High & Low Weather Summary for the Past Weeks

 TemperatureHumidityPressure
High81 °F (Jul 9, 2:30 pm)94% (Jul 14, 3:30 am)30.12 "Hg (Jul 14, 3:30 am)
Low70 °F (Jul 4, 11:00 pm)45% (Jul 10, 1:00 pm)29.95 "Hg (Jul 15, 5:00 am)
Average74 °F67%30.04 "Hg
* Reported Jul 4 7:00 pm — Jul 19 7:00 pm, Las Palmas. Weather by CustomWeather, © 2019

Note: Actual official high and low records may vary slightly from our data, if they occured in-between our weather recording intervals... More about our weather records

Advertising

Las Palmas Weather History for the Previous 24 Hours

Scroll right to see more
 ConditionsComfort  
Time TempWeatherWind HumidityBarometerVisibility
7:00 pm
Fri, Jul 19
77 °FScattered clouds.29 mph61%29.98 "HgN/A
6:30 pm79 °FPassing clouds.29 mph54%29.98 "HgN/A
6:00 pm79 °FPassing clouds.30 mph54%29.98 "HgN/A
5:30 pm81 °FPassing clouds.28 mph48%29.98 "HgN/A
5:00 pm79 °FPassing clouds.31 mph54%29.98 "HgN/A
4:30 pm81 °FScattered clouds.32 mph51%30.01 "HgN/A
4:00 pm81 °FPassing clouds.29 mph51%30.01 "HgN/A
3:30 pm81 °FPassing clouds.30 mph51%30.01 "HgN/A
3:00 pm81 °FScattered clouds.30 mph48%30.01 "HgN/A
2:30 pm81 °FScattered clouds.30 mph48%30.01 "HgN/A
2:00 pm79 °FScattered clouds.36 mph54%30.01 "HgN/A
1:30 pm79 °FPassing clouds.32 mph51%30.04 "HgN/A
1:00 pm79 °FScattered clouds.29 mph51%30.04 "HgN/A
12:30 pm79 °FScattered clouds.29 mph48%30.04 "HgN/A
12:00 pm79 °FScattered clouds.26 mph51%30.04 "HgN/A
11:30 am79 °FScattered clouds.28 mph51%30.04 "HgN/A
11:00 am75 °FScattered clouds.28 mph57%30.04 "HgN/A
10:30 am75 °FScattered clouds.30 mph57%30.01 "HgN/A
10:00 am73 °FScattered clouds.26 mph61%30.01 "HgN/A
9:30 am73 °FScattered clouds.26 mph61%30.01 "HgN/A
9:00 am72 °FScattered clouds.21 mph61%30.01 "HgN/A
8:30 am72 °FScattered clouds.22 mph61%30.01 "HgN/A
8:00 am72 °FScattered clouds.20 mph69%30.01 "HgN/A
7:30 am72 °FPartly sunny.20 mph65%30.01 "HgN/A
7:00 am72 °FPassing clouds.15 mph57%29.98 "HgN/A
6:30 am72 °FPassing clouds.20 mph61%29.98 "HgN/A
6:00 am72 °FPassing clouds.24 mph69%29.98 "HgN/A
5:30 am72 °FPassing clouds.22 mph61%29.98 "HgN/A
5:00 am72 °FPassing clouds.22 mph61%29.98 "HgN/A
4:30 am72 °FPassing clouds.22 mph65%29.98 "HgN/A
4:00 am72 °FPassing clouds.18 mph65%30.01 "HgN/A
3:30 am72 °FPassing clouds.18 mph65%30.01 "HgN/A
3:00 am72 °FPassing clouds.21 mph61%30.01 "HgN/A
2:30 am72 °FPassing clouds.24 mph69%30.01 "HgN/A
2:00 am72 °FPassing clouds.24 mph61%30.01 "HgN/A
1:30 am72 °FPassing clouds.22 mph65%30.01 "HgN/A
1:00 am72 °FPassing clouds.21 mph65%30.01 "HgN/A
12:30 am72 °FPassing clouds.22 mph65%30.04 "HgN/A
12:00 am72 °FPassing clouds.22 mph61%30.04 "HgN/A
11:30 pm
Thu, Jul 18
72 °FPassing clouds.24 mph65%30.04 "HgN/A
11:00 pm72 °FPassing clouds.25 mph61%30.04 "HgN/A
10:30 pm72 °FPassing clouds.26 mph65%30.01 "HgN/A
10:00 pm72 °FPassing clouds.29 mph61%30.01 "HgN/A
9:30 pm72 °FPassing clouds.26 mph65%30.01 "HgN/A
9:00 pm73 °FPassing clouds.25 mph57%30.01 "HgN/A
8:30 pm73 °FScattered clouds.28 mph57%30.01 "HgN/A
8:00 pm73 °FScattered clouds.24 mph61%30.01 "HgN/A
Weather by CustomWeather, © 2019

See weather overview